Time,TemperatureF,DewpointF,PressureIn,WindDirection,WindDirectionDegrees,WindSpeedMPH,WindSpeedGustMPH,Humidity,HourlyPrecipIn,Conditions,Clouds,dailyrainin,SoftwareType,DateUTC
2013-05-31 00:02:00,65.8,63.1,30.06,ENE,74,0.0,0.0,91,0.00,,---,0.00,VWS V14.01,2013-05-31 04:02:00,
2013-05-31 00:03:00,65.8,63.1,30.06,ENE,74,0.0,1.0,91,0.00,,---,0.00,VWS V14.01,2013-05-31 04:03:00,
2013-05-31 00:04:00,65.9,63.2,30.06,ENE,74,0.0,1.0,91,0.00,,---,0.00,VWS V14.01,2013-05-31 04:04:00,
2013-05-31 00:05:00,65.9,63.2,30.06,ENE,73,0.0,1.0,91,0.00,,---,0.00,VWS V14.01,2013-05-31 04:05:00,
2013-05-31 00:10:00,65.9,63.5,30.06,ESE,114,0.0,1.0,92,0.00,,---,0.00,VWS V14.01,2013-05-31 04:10:00,
2013-05-31 00:11:00,65.9,63.5,30.06,ESE,114,0.0,1.0,92,0.00,,---,0.00,VWS V14.01,2013-05-31 04:11:00,
2013-05-31 00:16:00,66.3,63.6,30.06,ESE,115,0.0,1.0,91,0.00,,---,0.00,VWS V14.01,2013-05-31 04:16:00,
2013-05-31 00:21:00,66.7,63.7,30.06,SW,218,0.0,1.0,90,0.00,,---,0.00,VWS V14.01,2013-05-31 04:21:00,
2013-05-31 00:26:00,66.9,63.9,30.06,SW,218,0.0,0.0,90,0.00,,---,0.00,VWS V14.01,2013-05-31 04:26:00,
2013-05-31 00:31:00,67.4,64.4,30.06,SW,217,0.0,1.0,90,0.00,,---,0.00,VWS V14.01,2013-05-31 04:31:00,
2013-05-31 00:36:00,67.6,64.2,30.07,SW,218,0.0,0.0,89,0.00,,---,0.00,VWS V14.01,2013-05-31 04:36:00,
2013-05-31 00:41:00,67.2,63.5,30.07,SW,218,0.0,0.0,88,0.00,,---,0.00,VWS V14.01,2013-05-31 04:41:00,
2013-05-31 00:46:00,66.7,63.7,30.07,SW,218,0.0,0.0,90,0.00,,---,0.00,VWS V14.01,2013-05-31 04:46:00,
2013-05-31 00:51:00,67.0,64.3,30.06,SW,215,0.0,0.0,91,0.00,,---,0.00,VWS V14.01,2013-05-31 04:51:00,
2013-05-31 00:56:00,67.2,64.2,30.06,SSE,163,0.0,1.0,90,0.00,,---,0.00,VWS V14.01,2013-05-31 04:56:00,
2013-05-31 01:01:00,66.8,64.1,30.07,SSE,163,0.0,0.0,91,0.00,,---,0.00,VWS V14.01,2013-05-31 05:01:00,
2013-05-31 01:06:00,66.7,64.0,30.07,SSE,163,0.0,0.0,91,0.00,,---,0.00,VWS V14.01,2013-05-31 05:06:00,
2013-05-31 01:11:00,66.7,64.0,30.07,SSE,163,0.0,0.0,91,0.00,,---,0.00,VWS V14.01,2013-05-31 05:11:00,
2013-05-31 01:16:00,66.7,64.0,30.07,SSE,164,0.0,0.0,91,0.00,,---,0.00,VWS V14.01,2013-05-31 05:16:00,
2013-05-31 01:21:00,66.6,63.6,30.07,SSE,163,0.0,0.0,90,0.00,,---,0.00,VWS V14.01,2013-05-31 05:21:00,
2013-05-31 01:26:00,66.6,63.6,30.06,SSE,163,0.0,0.0,90,0.00,,---,0.00,VWS V14.01,2013-05-31 05:26:00,
2013-05-31 01:31:00,66.5,63.5,30.06,SSE,163,0.0,0.0,90,0.00,,---,0.00,VWS V14.01,2013-05-31 05:31:00,
2013-05-31 01:36:00,66.5,63.5,30.06,SSE,163,0.0,0.0,90,0.00,,---,0.00,VWS V14.01,2013-05-31 05:36:00,
2013-05-31 01:41:00,66.4,63.4,30.06,SSE,164,0.0,0.0,90,0.00,,---,0.00,VWS V14.01,2013-05-31 05:41:00,
2013-05-31 01:46:00,66.5,63.2,30.06,SSE,163,0.0,0.0,89,0.00,,---,0.00,VWS V14.01,2013-05-31 05:46:00,
2013-05-31 01:51:00,66.5,63.2,30.06,SSE,163,0.0,0.0,89,0.00,,---,0.00,VWS V14.01,2013-05-31 05:51:00,
2013-05-31 01:56:00,66.4,63.1,30.06,South,176,0.0,0.0,89,0.00,,---,0.00,VWS V14.01,2013-05-31 05:56:00,
2013-05-31 02:01:00,66.9,63.2,30.06,SW,228,0.0,1.0,88,0.00,,---,0.00,VWS V14.01,2013-05-31 06:01:00,
2013-05-31 02:06:00,67.6,63.3,30.07,SW,214,1.0,2.0,86,0.00,,---,0.00,VWS V14.01,2013-05-31 06:06:00,
2013-05-31 02:11:00,68.2,63.2,30.07,SW,230,1.0,1.0,84,0.00,,---,0.00,VWS V14.01,2013-05-31 06:11:00,
2013-05-31 02:16:00,68.6,63.2,30.06,SSW,212,0.0,1.0,83,0.00,,---,0.00,VWS V14.01,2013-05-31 06:16:00,
2013-05-31 02:21:00,68.3,62.9,30.06,SSW,212,0.0,0.0,83,0.00,,---,0.00,VWS V14.01,2013-05-31 06:21:00,
2013-05-31 02:26:00,67.8,62.8,30.06,SSW,212,0.0,0.0,84,0.00,,---,0.00,VWS V14.01,2013-05-31 06:26:00,
2013-05-31 02:31:00,67.5,62.5,30.06,SSW,212,0.0,0.0,84,0.00,,---,0.00,VWS V14.01,2013-05-31 06:31:00,
2013-05-31 02:36:00,67.5,62.5,30.06,SW,228,0.0,1.0,84,0.00,,---,0.00,VWS V14.01,2013-05-31 06:36:00,
2013-05-31 02:41:00,67.5,62.5,30.06,SW,228,0.0,0.0,84,0.00,,---,0.00,VWS V14.01,2013-05-31 06:41:00,
2013-05-31 02:46:00,67.7,62.7,30.06,WNW,296,0.0,1.0,84,0.00,,---,0.00,VWS V14.01,2013-05-31 06:46:00,
2013-05-31 02:51:00,67.7,62.4,30.06,WNW,293,0.0,1.0,83,0.00,,---,0.00,VWS V14.01,2013-05-31 06:51:00,
2013-05-31 02:56:00,67.7,62.4,30.06,WNW,292,0.0,0.0,83,0.00,,---,0.00,VWS V14.01,2013-05-31 06:56:00,
2013-05-31 03:01:00,67.8,62.5,30.06,WNW,292,0.0,0.0,83,0.00,,---,0.00,VWS V14.01,2013-05-31 07:01:00,
2013-05-31 03:06:00,67.8,62.5,30.06,WNW,293,0.0,1.0,83,0.00,,---,0.00,VWS V14.01,2013-05-31 07:06:00,
2013-05-31 03:11:00,67.1,62.1,30.06,WNW,292,0.0,0.0,84,0.00,,---,0.00,VWS V14.01,2013-05-31 07:11:00,
2013-05-31 03:16:00,66.2,61.6,30.06,WNW,293,0.0,0.0,85,0.00,,---,0.00,VWS V14.01,2013-05-31 07:16:00,
2013-05-31 03:21:00,65.7,61.4,30.06,WNW,292,0.0,0.0,86,0.00,,---,0.00,VWS V14.01,2013-05-31 07:21:00,
2013-05-31 03:26:00,65.6,61.6,30.06,WNW,293,0.0,0.0,87,0.00,,---,0.00,VWS V14.01,2013-05-31 07:26:00,
2013-05-31 03:31:00,65.4,61.4,30.06,WNW,293,0.0,1.0,87,0.00,,---,0.00,VWS V14.01,2013-05-31 07:31:00,
2013-05-31 03:36:00,65.4,61.4,30.06,WNW,293,0.0,1.0,87,0.00,,---,0.00,VWS V14.01,2013-05-31 07:36:00,
2013-05-31 03:41:00,65.3,61.7,30.06,WNW,292,0.0,1.0,88,0.00,,---,0.00,VWS V14.01,2013-05-31 07:41:00,
2013-05-31 03:46:00,65.2,61.6,30.05,WNW,292,0.0,1.0,88,0.00,,---,0.00,VWS V14.01,2013-05-31 07:46:00,
2013-05-31 03:51:00,65.1,61.5,30.06,WNW,293,0.0,1.0,88,0.00,,---,0.00,VWS V14.01,2013-05-31 07:51:00,
2013-05-31 03:56:00,65.3,61.7,30.06,WNW,292,0.0,1.0,88,0.00,,---,0.00,VWS V14.01,2013-05-31 07:56:00,
2013-05-31 04:01:00,65.5,61.9,30.05,WNW,295,0.0,1.0,88,0.00,,---,0.00,VWS V14.01,2013-05-31 08:01:00,
2013-05-31 04:06:00,65.3,61.3,30.05,WNW,295,0.0,0.0,87,0.00,,---,0.00,VWS V14.01,2013-05-31 08:06:00,
2013-05-31 04:11:00,65.2,61.6,30.05,WNW,295,0.0,0.0,88,0.00,,---,0.00,VWS V14.01,2013-05-31 08:11:00,
2013-05-31 04:16:00,65.0,61.4,30.06,WNW,295,0.0,0.0,88,0.00,,---,0.00,VWS V14.01,2013-05-31 08:16:00,
2013-05-31 04:21:00,64.9,61.6,30.06,WNW,295,0.0,1.0,89,0.00,,---,0.00,VWS V14.01,2013-05-31 08:21:00,
2013-05-31 04:26:00,65.0,61.7,30.06,WNW,295,0.0,1.0,89,0.00,,---,0.00,VWS V14.01,2013-05-31 08:26:00,
2013-05-31 04:31:00,65.1,61.5,30.06,WNW,295,0.0,0.0,88,0.00,,---,0.00,VWS V14.01,2013-05-31 08:31:00,
2013-05-31 04:36:00,64.9,61.6,30.06,WNW,295,0.0,0.0,89,0.00,,---,0.00,VWS V14.01,2013-05-31 08:36:00,
2013-05-31 04:41:00,64.7,61.4,30.06,WNW,295,0.0,1.0,89,0.00,,---,0.00,VWS V14.01,2013-05-31 08:41:00,
2013-05-31 04:46:00,64.2,60.9,30.06,WNW,295,0.0,0.0,89,0.00,,---,0.00,VWS V14.01,2013-05-31 08:46:00,
2013-05-31 04:51:00,64.2,61.2,30.06,WNW,293,0.0,1.0,90,0.00,,---,0.00,VWS V14.01,2013-05-31 08:51:00,
2013-05-31 04:56:00,64.5,61.5,30.06,WNW,293,0.0,0.0,90,0.00,,---,0.00,VWS V14.01,2013-05-31 08:56:00,
2013-05-31 05:01:00,64.5,61.2,30.06,WNW,293,0.0,0.0,89,0.00,,---,0.00,VWS V14.01,2013-05-31 09:01:00,
2013-05-31 05:06:00,64.3,61.0,30.06,WNW,293,0.0,0.0,89,0.00,,---,0.00,VWS V14.01,2013-05-31 09:06:00,
2013-05-31 05:11:00,64.3,61.3,30.06,WNW,293,0.0,0.0,90,0.00,,---,0.00,VWS V14.01,2013-05-31 09:11:00,
2013-05-31 05:16:00,64.4,61.4,30.06,WNW,292,0.0,0.0,90,0.00,,---,0.00,VWS V14.01,2013-05-31 09:16:00,
2013-05-31 05:21:00,64.5,61.5,30.06,WNW,293,0.0,0.0,90,0.00,,---,0.00,VWS V14.01,2013-05-31 09:21:00,
2013-05-31 05:26:00,64.4,61.1,30.06,WNW,293,1.0,1.0,89,0.00,,---,0.00,VWS V14.01,2013-05-31 09:26:00,
2013-05-31 05:31:00,64.6,61.6,30.06,WNW,285,0.0,1.0,90,0.00,,---,0.00,VWS V14.01,2013-05-31 09:31:00,
2013-05-31 05:36:00,65.2,61.9,30.06,WNW,287,2.0,3.0,89,0.00,,---,0.00,VWS V14.01,2013-05-31 09:36:00,
2013-05-31 05:41:00,66.0,62.0,30.06,WNW,288,1.0,3.0,87,0.00,,---,0.00,VWS V14.01,2013-05-31 09:41:00,
2013-05-31 05:46:00,66.4,62.1,30.07,WNW,295,1.0,2.0,86,0.00,,---,0.00,VWS V14.01,2013-05-31 09:46:00,
2013-05-31 05:51:00,66.5,62.2,30.07,West,274,1.0,2.0,86,0.00,,---,0.00,VWS V14.01,2013-05-31 09:51:00,
2013-05-31 05:56:00,66.5,62.2,30.07,West,274,1.0,1.0,86,0.00,,---,0.00,VWS V14.01,2013-05-31 09:56:00,
2013-05-31 06:01:00,66.4,62.1,30.07,West,274,0.0,1.0,86,0.00,,---,0.00,VWS V14.01,2013-05-31 10:01:00,
2013-05-31 06:06:00,66.3,62.3,30.07,West,279,1.0,1.0,87,0.00,,---,0.00,VWS V14.01,2013-05-31 10:06:00,
2013-05-31 06:11:00,66.2,62.2,30.07,West,280,0.0,1.0,87,0.00,,---,0.00,VWS V14.01,2013-05-31 10:11:00,
2013-05-31 06:16:00,66.1,62.1,30.08,West,280,0.0,0.0,87,0.00,,---,0.00,VWS V14.01,2013-05-31 10:16:00,
2013-05-31 06:21:00,65.8,62.2,30.08,West,280,0.0,0.0,88,0.00,,---,0.00,VWS V14.01,2013-05-31 10:21:00,
2013-05-31 06:26:00,65.7,62.0,30.08,West,280,0.0,1.0,88,0.00,,---,0.00,VWS V14.01,2013-05-31 10:26:00,
2013-05-31 06:31:00,66.0,62.7,30.08,West,280,0.0,0.0,89,0.00,,---,0.00,VWS V14.01,2013-05-31 10:31:00,
2013-05-31 06:36:00,66.7,63.0,30.08,West,280,0.0,1.0,88,0.00,,---,0.00,VWS V14.01,2013-05-31 10:36:00,
2013-05-31 06:41:00,67.2,63.2,30.08,West,280,0.0,0.0,87,0.00,,---,0.00,VWS V14.01,2013-05-31 10:41:00,
2013-05-31 06:46:00,67.7,63.7,30.08,West,280,0.0,1.0,87,0.00,,---,0.00,VWS V14.01,2013-05-31 10:46:00,
2013-05-31 06:51:00,68.0,63.7,30.08,West,269,2.0,2.0,86,0.00,,---,0.00,VWS V14.01,2013-05-31 10:51:00,
2013-05-31 06:56:00,68.7,64.0,30.09,WSW,249,2.0,2.0,85,0.00,,---,0.00,VWS V14.01,2013-05-31 10:56:00,
2013-05-31 07:01:00,69.4,64.4,30.09,West,274,2.0,3.0,84,0.00,,---,0.00,VWS V14.01,2013-05-31 11:01:00,
2013-05-31 07:06:00,70.0,64.6,30.09,West,267,3.0,4.0,83,0.00,,---,0.00,VWS V14.01,2013-05-31 11:06:00,
2013-05-31 07:11:00,70.3,64.9,30.09,West,278,1.0,3.0,83,0.00,,---,0.00,VWS V14.01,2013-05-31 11:11:00,
2013-05-31 07:16:00,70.6,64.8,30.09,WNW,290,1.0,3.0,82,0.00,,---,0.00,VWS V14.01,2013-05-31 11:16:00,
2013-05-31 07:21:00,71.0,64.9,30.09,West,267,4.0,5.0,81,0.00,,---,0.00,VWS V14.01,2013-05-31 11:21:00,
2013-05-31 07:26:00,71.2,65.1,30.08,WNW,287,3.0,4.0,81,0.00,,---,0.00,VWS V14.01,2013-05-31 11:26:00,
2013-05-31 07:31:00,71.5,65.7,30.08,West,270,3.0,5.0,82,0.00,,---,0.00,VWS V14.01,2013-05-31 11:31:00,
2013-05-31 07:36:00,71.8,64.9,30.08,WNW,284,2.0,7.0,79,0.00,,---,0.00,VWS V14.01,2013-05-31 11:36:00,
2013-05-31 07:41:00,72.0,65.1,30.08,West,280,4.0,6.0,79,0.00,,---,0.00,VWS V14.01,2013-05-31 11:41:00,
2013-05-31 07:46:00,72.2,65.3,30.08,WNW,290,4.0,6.0,79,0.00,,---,0.00,VWS V14.01,2013-05-31 11:46:00,
2013-05-31 07:51:00,72.6,65.7,30.08,NW,309,4.0,4.0,79,0.00,,---,0.00,VWS V14.01,2013-05-31 11:51:00,
2013-05-31 07:56:00,72.9,66.0,30.08,WNW,296,2.0,4.0,79,0.00,,---,0.00,VWS V14.01,2013-05-31 11:56:00,
2013-05-31 08:01:00,73.3,65.7,30.08,WNW,291,3.0,6.0,77,0.00,,---,0.00,VWS V14.01,2013-05-31 12:01:00,
2013-05-31 08:06:00,73.6,65.2,30.08,West,281,4.0,6.0,75,0.00,,---,0.00,VWS V14.01,2013-05-31 12:06:00,
2013-05-31 08:11:00,73.9,65.5,30.08,NW,304,3.0,5.0,75,0.00,,---,0.00,VWS V14.01,2013-05-31 12:11:00,
2013-05-31 08:16:00,74.2,65.8,30.08,WNW,288,5.0,6.0,75,0.00,,---,0.00,VWS V14.01,2013-05-31 12:16:00,
2013-05-31 08:21:00,74.5,66.1,30.08,West,263,3.0,7.0,75,0.00,,---,0.00,VWS V14.01,2013-05-31 12:21:00,
2013-05-31 08:26:00,74.9,66.1,30.08,WNW,284,4.0,5.0,74,0.00,,---,0.00,VWS V14.01,2013-05-31 12:26:00,
2013-05-31 08:31:00,75.1,65.5,30.08,WNW,296,4.0,7.0,72,0.00,,---,0.00,VWS V14.01,2013-05-31 12:31:00,
2013-05-31 08:36:00,75.5,66.2,30.08,NW,304,3.0,7.0,73,0.00,,---,0.00,VWS V14.01,2013-05-31 12:36:00,
2013-05-31 08:41:00,75.9,64.6,30.08,NNW,328,4.0,9.0,68,0.00,,---,0.00,VWS V14.01,2013-05-31 12:41:00,
2013-05-31 08:46:00,76.3,66.2,30.08,WNW,284,1.0,6.0,71,0.00,,---,0.00,VWS V14.01,2013-05-31 12:46:00,
2013-05-31 08:51:00,76.7,66.6,30.08,West,263,3.0,5.0,71,0.00,,---,0.00,VWS V14.01,2013-05-31 12:51:00,
2013-05-31 08:56:00,76.9,65.5,30.08,WNW,285,3.0,8.0,68,0.00,,---,0.00,VWS V14.01,2013-05-31 12:56:00,
2013-05-31 09:01:00,77.2,65.8,30.08,WNW,282,4.0,6.0,68,0.00,,---,0.00,VWS V14.01,2013-05-31 13:01:00,
2013-05-31 09:06:00,77.4,65.6,30.08,WNW,288,3.0,7.0,67,0.00,,---,0.00,VWS V14.01,2013-05-31 13:06:00,
2013-05-31 09:11:00,77.6,65.3,30.08,WNW,290,4.0,7.0,66,0.00,,---,0.00,VWS V14.01,2013-05-31 13:11:00,
2013-05-31 09:16:00,78.0,65.3,30.07,WNW,288,6.0,8.0,65,0.00,,---,0.00,VWS V14.01,2013-05-31 13:16:00,
2013-05-31 09:21:00,78.1,65.4,30.07,West,264,2.0,9.0,65,0.00,,---,0.00,VWS V14.01,2013-05-31 13:21:00,
2013-05-31 09:26:00,78.3,64.7,30.07,West,277,3.0,7.0,63,0.00,,---,0.00,VWS V14.01,2013-05-31 13:26:00,
2013-05-31 09:31:00,78.7,66.0,30.07,West,274,6.0,9.0,65,0.00,,---,0.00,VWS V14.01,2013-05-31 13:31:00,
2013-05-31 09:36:00,79.0,66.2,30.07,NNW,334,4.0,6.0,65,0.00,,---,0.00,VWS V14.01,2013-05-31 13:36:00,
2013-05-31 09:41:00,79.3,66.1,30.07,WNW,290,4.0,8.0,64,0.00,,---,0.00,VWS V14.01,2013-05-31 13:41:00,
2013-05-31 09:46:00,79.2,65.5,30.07,NW,314,6.0,8.0,63,0.00,,---,0.00,VWS V14.01,2013-05-31 13:46:00,
2013-05-31 09:51:00,79.3,66.1,30.07,West,274,6.0,7.0,64,0.00,,---,0.00,VWS V14.01,2013-05-31 13:51:00,
2013-05-31 09:56:00,79.5,66.3,30.06,WNW,302,5.0,10.0,64,0.00,,---,0.00,VWS V14.01,2013-05-31 13:56:00,
2013-05-31 10:01:00,79.5,64.9,30.06,West,278,8.0,8.0,61,0.00,,---,0.00,VWS V14.01,2013-05-31 14:01:00,
2013-05-31 10:06:00,79.3,65.6,30.06,West,280,4.0,9.0,63,0.00,,---,0.00,VWS V14.01,2013-05-31 14:06:00,
2013-05-31 10:11:00,78.9,65.2,30.06,WNW,296,3.0,10.0,63,0.00,,---,0.00,VWS V14.01,2013-05-31 14:11:00,
2013-05-31 10:16:00,78.9,66.2,30.06,WNW,292,3.0,6.0,65,0.00,,---,0.00,VWS V14.01,2013-05-31 14:16:00,
2013-05-31 10:21:00,79.6,66.8,30.06,WSW,257,5.0,9.0,65,0.00,,---,0.00,VWS V14.01,2013-05-31 14:21:00,
2013-05-31 10:26:00,79.9,66.2,30.06,WSW,256,8.0,9.0,63,0.00,,---,0.00,VWS V14.01,2013-05-31 14:26:00,
2013-05-31 10:31:00,79.9,63.8,30.06,WSW,242,6.0,12.0,58,0.00,,---,0.00,VWS V14.01,2013-05-31 14:31:00,
2013-05-31 10:36:00,79.6,63.5,30.06,West,276,6.0,12.0,58,0.00,,---,0.00,VWS V14.01,2013-05-31 14:36:00,
2013-05-31 10:41:00,78.7,62.2,30.06,West,266,6.0,13.0,57,0.00,,---,0.00,VWS V14.01,2013-05-31 14:41:00,
2013-05-31 10:46:00,77.9,62.9,30.06,WNW,288,5.0,8.0,60,0.00,,---,0.00,VWS V14.01,2013-05-31 14:46:00,
2013-05-31 10:51:00,78.0,63.5,30.06,West,277,6.0,7.0,61,0.00,,---,0.00,VWS V14.01,2013-05-31 14:51:00,
2013-05-31 10:56:00,78.9,63.8,30.06,West,264,4.0,9.0,60,0.00,,---,0.00,VWS V14.01,2013-05-31 14:56:00,
2013-05-31 11:01:00,79.6,65.0,30.06,WSW,242,3.0,8.0,61,0.00,,---,0.00,VWS V14.01,2013-05-31 15:01:00,
2013-05-31 11:06:00,80.5,65.3,30.05,WSW,257,4.0,6.0,60,0.00,,---,0.00,VWS V14.01,2013-05-31 15:06:00,
2013-05-31 11:11:00,81.2,65.0,30.05,West,259,1.0,7.0,58,0.00,,---,0.00,VWS V14.01,2013-05-31 15:11:00,
2013-05-31 11:17:00,81.6,64.9,30.05,SSW,205,4.0,9.0,57,0.00,,---,0.00,VWS V14.01,2013-05-31 15:17:00,
2013-05-31 11:22:00,81.9,64.2,30.05,WNW,292,5.0,9.0,55,0.00,,---,0.00,VWS V14.01,2013-05-31 15:22:00,
2013-05-31 11:27:00,82.0,61.5,30.05,West,271,3.0,8.0,50,0.00,,---,0.00,VWS V14.01,2013-05-31 15:27:00,
2013-05-31 11:32:00,82.1,61.1,30.05,WSW,240,2.0,9.0,49,0.00,,---,0.00,VWS V14.01,2013-05-31 15:32:00,
2013-05-31 11:37:00,82.3,61.2,30.05,WSW,257,4.0,10.0,49,0.00,,---,0.00,VWS V14.01,2013-05-31 15:37:00,
2013-05-31 11:42:00,82.4,61.3,30.05,SSW,205,2.0,8.0,49,0.00,,---,0.00,VWS V14.01,2013-05-31 15:42:00,
2013-05-31 11:47:00,82.5,62.6,30.04,WSW,242,4.0,6.0,51,0.00,,---,0.00,VWS V14.01,2013-05-31 15:47:00,
2013-05-31 11:52:00,82.2,63.9,30.04,North,352,0.0,6.0,54,0.00,,---,0.00,VWS V14.01,2013-05-31 15:52:00,
2013-05-31 11:57:00,82.3,61.8,30.04,West,260,2.0,5.0,50,0.00,,---,0.00,VWS V14.01,2013-05-31 15:57:00,
2013-05-31 12:02:00,82.3,61.2,30.04,NNW,328,3.0,9.0,49,0.00,,---,0.00,VWS V14.01,2013-05-31 16:02:00,
2013-05-31 12:07:00,82.7,62.2,30.03,SSW,205,1.0,3.0,50,0.00,,---,0.00,VWS V14.01,2013-05-31 16:07:00,
2013-05-31 12:12:00,83.1,61.4,30.03,SW,217,7.0,7.0,48,0.00,,---,0.00,VWS V14.01,2013-05-31 16:12:00,
2013-05-31 12:17:00,83.1,62.5,30.03,West,272,1.0,11.0,50,0.00,,---,0.00,VWS V14.01,2013-05-31 16:17:00,
2013-05-31 12:22:00,83.3,60.4,30.03,WNW,285,6.0,8.0,46,0.00,,---,0.00,VWS V14.01,2013-05-31 16:22:00,
2013-05-31 12:27:00,83.5,61.2,30.03,West,270,4.0,12.0,47,0.00,,---,0.00,VWS V14.01,2013-05-31 16:27:00,
2013-05-31 12:32:00,83.0,60.1,30.03,WNW,302,10.0,12.0,46,0.00,,---,0.00,VWS V14.01,2013-05-31 16:32:00,
2013-05-31 12:37:00,82.1,61.1,30.03,West,276,4.0,9.0,49,0.00,,---,0.00,VWS V14.01,2013-05-31 16:37:00,
2013-05-31 12:42:00,82.3,62.9,30.03,West,273,3.0,10.0,52,0.00,,---,0.00,VWS V14.01,2013-05-31 16:42:00,
2013-05-31 12:47:00,82.7,61.6,30.02,West,272,7.0,10.0,49,0.00,,---,0.00,VWS V14.01,2013-05-31 16:47:00,
2013-05-31 12:52:00,83.2,60.9,30.02,WNW,302,4.0,10.0,47,0.00,,---,0.00,VWS V14.01,2013-05-31 16:52:00,
2013-05-31 12:57:00,83.8,62.0,30.02,West,276,5.0,8.0,48,0.00,,---,0.00,VWS V14.01,2013-05-31 16:57:00,
2013-05-31 13:02:00,84.4,62.6,30.02,West,274,4.0,9.0,48,0.00,,---,0.00,VWS V14.01,2013-05-31 17:02:00,
2013-05-31 13:07:00,85.0,61.3,30.02,SW,218,9.0,11.0,45,0.00,,---,0.00,VWS V14.01,2013-05-31 17:07:00,
2013-05-31 13:12:00,85.4,59.7,30.02,WNW,294,4.0,15.0,42,0.00,,---,0.00,VWS V14.01,2013-05-31 17:12:00,
2013-05-31 13:17:00,85.1,58.1,30.02,WSW,248,3.0,14.0,40,0.00,,---,0.00,VWS V14.01,2013-05-31 17:17:00,
2013-05-31 13:23:00,84.7,58.4,30.02,WNW,288,8.0,16.0,41,0.00,,---,0.00,VWS V14.01,2013-05-31 17:23:00,
2013-05-31 13:28:00,84.9,57.2,30.02,WNW,298,11.0,16.0,39,0.00,,---,0.00,VWS V14.01,2013-05-31 17:28:00,
2013-05-31 13:33:00,84.5,59.6,30.01,WSW,257,7.0,14.0,43,0.00,,---,0.00,VWS V14.01,2013-05-31 17:33:00,
2013-05-31 13:38:00,84.1,59.2,30.01,West,273,5.0,13.0,43,0.00,,---,0.00,VWS V14.01,2013-05-31 17:38:00,
2013-05-31 13:43:00,84.3,60.7,30.01,SW,219,6.0,7.0,45,0.00,,---,0.00,VWS V14.01,2013-05-31 17:43:00,
2013-05-31 13:48:00,84.1,59.2,30.01,West,280,3.0,13.0,43,0.00,,---,0.00,VWS V14.01,2013-05-31 17:48:00,
2013-05-31 13:53:00,83.9,60.3,30.01,West,264,4.0,8.0,45,0.00,,---,0.00,VWS V14.01,2013-05-31 17:53:00,
2013-05-31 13:58:00,83.7,58.8,30.00,SW,229,5.0,7.0,43,0.00,,---,0.00,VWS V14.01,2013-05-31 17:58:00,
2013-05-31 14:03:00,83.8,61.4,30.00,SSW,198,4.0,7.0,47,0.00,,---,0.00,VWS V14.01,2013-05-31 18:03:00,
2013-05-31 14:09:00,84.5,58.9,30.00,SW,219,3.0,6.0,42,0.00,,---,0.00,VWS V14.01,2013-05-31 18:09:00,
2013-05-31 14:14:00,84.9,59.3,30.00,WNW,288,4.0,10.0,42,0.00,,---,0.00,VWS V14.01,2013-05-31 18:14:00,
2013-05-31 14:19:00,84.6,60.3,30.00,WNW,294,3.0,7.0,44,0.00,,---,0.00,VWS V14.01,2013-05-31 18:19:00,
2013-05-31 14:24:00,84.7,61.7,30.00,West,280,4.0,6.0,46,0.00,,---,0.00,VWS V14.01,2013-05-31 18:24:00,
2013-05-31 14:29:00,85.1,60.8,29.99,WNW,283,2.0,5.0,44,0.00,,---,0.00,VWS V14.01,2013-05-31 18:29:00,
2013-05-31 14:34:00,85.3,59.6,30.00,WNW,283,4.0,9.0,42,0.00,,---,0.00,VWS V14.01,2013-05-31 18:34:00,
2013-05-31 14:39:00,85.2,61.5,29.99,West,269,2.0,7.0,45,0.00,,---,0.00,VWS V14.01,2013-05-31 18:39:00,
2013-05-31 14:44:00,85.8,61.4,29.99,SW,235,2.0,6.0,44,0.00,,---,0.00,VWS V14.01,2013-05-31 18:44:00,
2013-05-31 14:49:00,86.1,60.3,29.99,SSW,207,6.0,12.0,42,0.00,,---,0.00,VWS V14.01,2013-05-31 18:49:00,
2013-05-31 14:54:00,85.9,60.8,29.99,WNW,283,10.0,10.0,43,0.00,,---,0.00,VWS V14.01,2013-05-31 18:54:00,
2013-05-31 14:59:00,86.1,61.0,29.99,SSE,160,3.0,11.0,43,0.00,,---,0.00,VWS V14.01,2013-05-31 18:59:00,
2013-05-31 15:04:00,86.6,59.4,29.99,South,181,9.0,15.0,40,0.00,,---,0.00,VWS V14.01,2013-05-31 19:04:00,
2013-05-31 15:09:00,87.0,62.5,29.99,WSW,248,4.0,10.0,44,0.00,,---,0.00,VWS V14.01,2013-05-31 19:09:00,
2013-05-31 15:14:00,87.3,65.8,29.99,ENE,76,1.0,5.0,49,0.00,,---,0.00,VWS V14.01,2013-05-31 19:14:00,
2013-05-31 15:19:00,86.8,67.6,29.99,WNW,295,3.0,5.0,53,0.00,,---,0.00,VWS V14.01,2013-05-31 19:19:00,
2013-05-31 15:24:00,86.3,64.3,29.98,NW,309,7.0,8.0,48,0.00,,---,0.00,VWS V14.01,2013-05-31 19:24:00,
2013-05-31 15:29:00,86.3,64.3,29.98,SSW,194,5.0,8.0,48,0.00,,---,0.00,VWS V14.01,2013-05-31 19:29:00,
2013-05-31 15:34:00,86.2,64.8,29.98,SW,221,4.0,9.0,49,0.00,,---,0.00,VWS V14.01,2013-05-31 19:34:00,
2013-05-31 15:39:00,86.3,66.6,29.98,SSW,212,6.0,8.0,52,0.00,,---,0.00,VWS V14.01,2013-05-31 19:39:00,
2013-05-31 15:44:00,86.1,65.9,29.98,SSW,205,4.0,9.0,51,0.00,,---,0.00,VWS V14.01,2013-05-31 19:44:00,
2013-05-31 15:49:00,86.6,67.4,29.97,South,172,7.0,9.0,53,0.00,,---,0.00,VWS V14.01,2013-05-31 19:49:00,
2013-05-31 15:54:00,86.0,65.8,29.97,SSE,153,6.0,9.0,51,0.00,,---,0.00,VWS V14.01,2013-05-31 19:54:00,
2013-05-31 15:59:00,85.4,66.3,29.97,South,173,6.0,9.0,53,0.00,,---,0.00,VWS V14.01,2013-05-31 19:59:00,
2013-05-31 16:04:00,85.3,66.2,29.97,SSW,211,6.0,8.0,53,0.00,,---,0.00,VWS V14.01,2013-05-31 20:04:00,
2013-05-31 16:09:00,84.6,65.6,29.97,ESE,120,4.0,9.0,53,0.00,,---,0.00,VWS V14.01,2013-05-31 20:09:00,
2013-05-31 16:14:00,84.5,67.6,29.97,ESE,122,4.0,7.0,57,0.00,,---,0.00,VWS V14.01,2013-05-31 20:14:00,
2013-05-31 16:19:00,84.9,66.9,29.96,SE,144,3.0,9.0,55,0.00,,---,0.00,VWS V14.01,2013-05-31 20:19:00,
2013-05-31 16:24:00,85.2,66.7,29.96,SSE,148,4.0,12.0,54,0.00,,---,0.00,VWS V14.01,2013-05-31 20:24:00,
2013-05-31 16:29:00,85.2,66.2,29.96,SSE,149,9.0,10.0,53,0.00,,---,0.00,VWS V14.01,2013-05-31 20:29:00,
2013-05-31 16:34:00,84.1,66.2,29.96,SE,142,9.0,12.0,55,0.00,,---,0.00,VWS V14.01,2013-05-31 20:34:00,
2013-05-31 16:41:00,83.0,65.7,29.96,South,172,9.0,10.0,56,0.00,,---,0.00,VWS V14.01,2013-05-31 20:41:00,
2013-05-31 16:46:00,82.2,66.0,29.96,SSE,152,3.0,9.0,58,0.00,,---,0.00,VWS V14.01,2013-05-31 20:46:00,
2013-05-31 16:51:00,82.0,66.8,29.96,South,173,3.0,7.0,60,0.00,,---,0.00,VWS V14.01,2013-05-31 20:51:00,
2013-05-31 16:56:00,82.8,68.0,29.96,SE,146,8.0,8.0,61,0.00,,---,0.00,VWS V14.01,2013-05-31 20:56:00,
2013-05-31 17:01:00,83.5,67.2,29.96,SE,127,7.0,9.0,58,0.00,,---,0.00,VWS V14.01,2013-05-31 21:01:00,
2013-05-31 17:06:00,83.5,67.2,29.95,South,172,5.0,8.0,58,0.00,,---,0.00,VWS V14.01,2013-05-31 21:06:00,
2013-05-31 17:11:00,83.0,66.2,29.95,South,179,8.0,8.0,57,0.00,,---,0.00,VWS V14.01,2013-05-31 21:11:00,
2013-05-31 17:16:00,83.6,66.8,29.95,South,173,5.0,9.0,57,0.00,,---,0.00,VWS V14.01,2013-05-31 21:16:00,
2013-05-31 17:21:00,83.9,68.5,29.94,SSW,210,5.0,10.0,60,0.00,,---,0.00,VWS V14.01,2013-05-31 21:21:00,
2013-05-31 17:26:00,83.9,67.1,29.94,SSE,160,7.0,9.0,57,0.00,,---,0.00,VWS V14.01,2013-05-31 21:26:00,
2013-05-31 17:31:00,83.8,67.5,29.94,SSE,166,8.0,8.0,58,0.00,,---,0.00,VWS V14.01,2013-05-31 21:31:00,
2013-05-31 17:36:00,82.8,66.0,29.94,SSW,198,8.0,9.0,57,0.00,,---,0.00,VWS V14.01,2013-05-31 21:36:00,
2013-05-31 17:41:00,83.0,67.7,29.93,SSE,159,2.0,8.0,60,0.00,,---,0.00,VWS V14.01,2013-05-31 21:41:00,
2013-05-31 17:46:00,83.4,67.1,29.93,SE,145,2.0,6.0,58,0.00,,---,0.00,VWS V14.01,2013-05-31 21:46:00,
2013-05-31 17:51:00,83.3,67.5,29.93,SW,214,4.0,7.0,59,0.00,,---,0.00,VWS V14.01,2013-05-31 21:51:00,
2013-05-31 17:57:00,83.2,67.4,29.93,SSE,156,5.0,8.0,59,0.00,,---,0.00,VWS V14.01,2013-05-31 21:57:00,
2013-05-31 18:02:00,83.2,68.4,29.93,South,169,6.0,9.0,61,0.00,,---,0.00,VWS V14.01,2013-05-31 22:02:00,
2013-05-31 18:07:00,83.4,68.1,29.93,South,179,5.0,9.0,60,0.00,,---,0.00,VWS V14.01,2013-05-31 22:07:00,
2013-05-31 18:12:00,83.7,68.8,29.92,SSE,160,3.0,6.0,61,0.00,,---,0.00,VWS V14.01,2013-05-31 22:12:00,
2013-05-31 18:17:00,83.7,67.4,29.92,SSE,149,3.0,6.0,58,0.00,,---,0.00,VWS V14.01,2013-05-31 22:17:00,
2013-05-31 18:22:00,83.6,68.3,29.92,SSE,156,4.0,6.0,60,0.00,,---,0.00,VWS V14.01,2013-05-31 22:22:00,
2013-05-31 18:27:00,83.5,67.7,29.92,South,176,3.0,6.0,59,0.00,,---,0.00,VWS V14.01,2013-05-31 22:27:00,
2013-05-31 18:32:00,83.6,68.7,29.92,South,170,3.0,4.0,61,0.00,,---,0.00,VWS V14.01,2013-05-31 22:32:00,
2013-05-31 18:37:00,83.9,70.0,29.92,SSE,158,2.0,4.0,63,0.00,,---,0.00,VWS V14.01,2013-05-31 22:37:00,
2013-05-31 18:42:00,84.1,69.2,29.92,South,179,1.0,3.0,61,0.00,,---,0.00,VWS V14.01,2013-05-31 22:42:00,
2013-05-31 18:47:00,84.3,68.4,29.91,SSE,166,2.0,3.0,59,0.00,,---,0.00,VWS V14.01,2013-05-31 22:47:00,
2013-05-31 18:52:00,84.4,69.0,29.91,SSE,167,2.0,3.0,60,0.00,,---,0.00,VWS V14.01,2013-05-31 22:52:00,
2013-05-31 18:57:00,84.2,68.8,29.91,South,172,2.0,3.0,60,0.00,,---,0.00,VWS V14.01,2013-05-31 22:57:00,
2013-05-31 19:02:00,84.0,69.1,29.91,South,173,1.0,4.0,61,0.00,,---,0.00,VWS V14.01,2013-05-31 23:02:00,
2013-05-31 19:07:00,83.7,68.8,29.91,SSE,150,2.0,4.0,61,0.00,,---,0.00,VWS V14.01,2013-05-31 23:07:00,
2013-05-31 19:12:00,83.5,69.6,29.91,SSE,153,1.0,3.0,63,0.00,,---,0.00,VWS V14.01,2013-05-31 23:12:00,
2013-05-31 19:17:00,83.4,69.5,29.91,SSW,198,1.0,2.0,63,0.00,,---,0.00,VWS V14.01,2013-05-31 23:17:00,
2013-05-31 19:22:00,83.3,68.9,29.91,SSE,153,2.0,3.0,62,0.00,,---,0.00,VWS V14.01,2013-05-31 23:22:00,
2013-05-31 19:27:00,83.1,68.7,29.91,South,181,2.0,3.0,62,0.00,,---,0.00,VWS V14.01,2013-05-31 23:27:00,
2013-05-31 19:32:00,82.9,68.6,29.91,SSE,156,3.0,4.0,62,0.00,,---,0.00,VWS V14.01,2013-05-31 23:32:00,
2013-05-31 19:37:00,82.8,68.0,29.91,SW,224,2.0,3.0,61,0.00,,---,0.00,VWS V14.01,2013-05-31 23:37:00,
2013-05-31 19:43:00,82.7,67.4,29.91,SSW,209,1.0,3.0,60,0.00,,---,0.00,VWS V14.01,2013-05-31 23:43:00,
2013-05-31 19:48:00,82.3,67.0,29.91,SW,219,1.0,3.0,60,0.00,,---,0.00,VWS V14.01,2013-05-31 23:48:00,
2013-05-31 19:53:00,81.9,67.1,29.91,SW,216,2.0,3.0,61,0.00,,---,0.00,VWS V14.01,2013-05-31 23:53:00,
2013-05-31 19:58:00,81.3,67.1,29.91,SSW,204,2.0,4.0,62,0.00,,---,0.00,VWS V14.01,2013-05-31 23:58:00,
2013-05-31 20:03:00,80.6,66.8,29.92,SSW,202,1.0,3.0,63,0.00,,---,0.00,VWS V14.01,2013-06-01 00:03:00,
2013-05-31 20:08:00,79.8,66.6,29.92,SW,218,1.0,4.0,64,0.00,,---,0.00,VWS V14.01,2013-06-01 00:08:00,
2013-05-31 20:13:00,79.2,66.4,29.92,SW,226,2.0,4.0,65,0.00,,---,0.00,VWS V14.01,2013-06-01 00:13:00,
2013-05-31 20:18:00,78.6,66.3,29.92,SW,216,2.0,3.0,66,0.00,,---,0.00,VWS V14.01,2013-06-01 00:18:00,
2013-05-31 20:23:00,78.2,65.9,29.92,SW,214,3.0,5.0,66,0.00,,---,0.00,VWS V14.01,2013-06-01 00:23:00,
2013-05-31 20:28:00,77.8,66.0,29.92,SSW,212,4.0,4.0,67,0.00,,---,0.00,VWS V14.01,2013-06-01 00:28:00,
2013-05-31 20:33:00,77.5,65.7,29.92,SW,231,1.0,5.0,67,0.00,,---,0.00,VWS V14.01,2013-06-01 00:33:00,
2013-05-31 20:38:00,77.2,65.4,29.92,SSW,200,0.0,5.0,67,0.00,,---,0.00,VWS V14.01,2013-06-01 00:38:00,
2013-05-31 20:43:00,76.9,65.1,29.92,SW,228,2.0,3.0,67,0.00,,---,0.00,VWS V14.01,2013-06-01 00:43:00,
2013-05-31 20:48:00,76.7,64.9,29.92,SSW,204,1.0,4.0,67,0.00,,---,0.00,VWS V14.01,2013-06-01 00:48:00,
2013-05-31 20:53:00,76.4,64.6,29.92,SW,224,1.0,3.0,67,0.00,,---,0.00,VWS V14.01,2013-06-01 00:53:00,
2013-05-31 20:58:00,76.1,64.4,29.92,SSW,210,1.0,5.0,67,0.00,,---,0.00,VWS V14.01,2013-06-01 00:58:00,
2013-05-31 21:03:00,75.9,64.6,29.93,SSE,166,1.0,3.0,68,0.00,,---,0.00,VWS V14.01,2013-06-01 01:03:00,
2013-05-31 21:08:00,75.6,64.3,29.93,SW,225,0.0,3.0,68,0.00,,---,0.00,VWS V14.01,2013-06-01 01:08:00,
2013-05-31 21:13:00,75.4,64.1,29.93,SSW,211,0.0,2.0,68,0.00,,---,0.00,VWS V14.01,2013-06-01 01:13:00,
2013-05-31 21:18:00,75.3,64.0,29.93,SSW,200,3.0,3.0,68,0.00,,---,0.00,VWS V14.01,2013-06-01 01:18:00,
2013-05-31 21:23:00,75.2,63.9,29.93,SSW,210,3.0,3.0,68,0.00,,---,0.00,VWS V14.01,2013-06-01 01:23:00,
2013-05-31 21:28:00,75.2,63.9,29.94,SSW,202,1.0,3.0,68,0.00,,---,0.00,VWS V14.01,2013-06-01 01:28:00,
2013-05-31 21:33:00,75.2,63.9,29.94,SW,224,2.0,3.0,68,0.00,,---,0.00,VWS V14.01,2013-06-01 01:33:00,
2013-05-31 21:38:00,75.1,63.8,29.94,SW,219,2.0,4.0,68,0.00,,---,0.00,VWS V14.01,2013-06-01 01:38:00,
2013-05-31 21:43:00,74.9,63.6,29.94,SW,226,2.0,5.0,68,0.00,,---,0.00,VWS V14.01,2013-06-01 01:43:00,
2013-05-31 21:48:00,74.8,63.5,29.94,SW,232,2.0,4.0,68,0.00,,---,0.00,VWS V14.01,2013-06-01 01:48:00,
2013-05-31 21:53:00,74.6,63.3,29.94,SSW,210,1.0,3.0,68,0.00,,---,0.00,VWS V14.01,2013-06-01 01:53:00,
2013-05-31 21:58:00,74.5,63.3,29.95,SW,218,4.0,4.0,68,0.00,,---,0.00,VWS V14.01,2013-06-01 01:58:00,
2013-05-31 22:03:00,74.4,63.2,29.94,SSW,203,1.0,5.0,68,0.00,,---,0.00,VWS V14.01,2013-06-01 02:03:00,
2013-05-31 22:08:00,74.4,63.2,29.94,SW,219,1.0,5.0,68,0.00,,---,0.00,VWS V14.01,2013-06-01 02:08:00,
2013-05-31 22:13:00,74.4,63.2,29.95,SW,224,1.0,4.0,68,0.00,,---,0.00,VWS V14.01,2013-06-01 02:13:00,
2013-05-31 22:18:00,74.3,63.1,29.95,WSW,239,4.0,4.0,68,0.00,,---,0.00,VWS V14.01,2013-06-01 02:18:00,
2013-05-31 22:23:00,74.3,63.1,29.94,SSW,204,1.0,5.0,68,0.00,,---,0.00,VWS V14.01,2013-06-01 02:23:00,
2013-05-31 22:28:00,74.2,62.5,29.94,SW,218,0.0,4.0,67,0.00,,---,0.00,VWS V14.01,2013-06-01 02:28:00,
2013-05-31 22:33:00,74.1,62.5,29.94,SW,233,1.0,3.0,67,0.00,,---,0.00,VWS V14.01,2013-06-01 02:33:00,
2013-05-31 22:38:00,73.9,62.7,29.94,WSW,250,2.0,4.0,68,0.00,,---,0.00,VWS V14.01,2013-06-01 02:38:00,
2013-05-31 22:43:00,73.8,62.6,29.94,WSW,237,1.0,3.0,68,0.00,,---,0.00,VWS V14.01,2013-06-01 02:43:00,
2013-05-31 22:48:00,73.7,62.5,29.94,SW,218,3.0,5.0,68,0.00,,---,0.00,VWS V14.01,2013-06-01 02:48:00,
2013-05-31 22:53:00,73.8,62.6,29.94,WSW,238,5.0,8.0,68,0.00,,---,0.00,VWS V14.01,2013-06-01 02:53:00,
2013-05-31 22:59:00,73.8,62.6,29.94,WSW,239,1.0,4.0,68,0.00,,---,0.00,VWS V14.01,2013-06-01 02:59:00,
2013-05-31 23:04:00,73.7,62.5,29.94,SW,215,2.0,5.0,68,0.00,,---,0.00,VWS V14.01,2013-06-01 03:04:00,
2013-05-31 23:09:00,73.7,62.5,29.94,SW,225,7.0,7.0,68,0.00,,---,0.00,VWS V14.01,2013-06-01 03:09:00,
2013-05-31 23:14:00,73.6,62.4,29.95,SW,218,4.0,6.0,68,0.00,,---,0.00,VWS V14.01,2013-06-01 03:14:00,
2013-05-31 23:19:00,73.7,62.1,29.94,SW,222,3.0,6.0,67,0.00,,---,0.00,VWS V14.01,2013-06-01 03:19:00,
2013-05-31 23:24:00,73.6,62.0,29.94,WSW,242,1.0,6.0,67,0.00,,---,0.00,VWS V14.01,2013-06-01 03:24:00,
2013-05-31 23:29:00,73.5,61.9,29.94,SW,228,4.0,5.0,67,0.00,,---,0.00,VWS V14.01,2013-06-01 03:29:00,
2013-05-31 23:34:00,73.6,62.0,29.94,SW,230,3.0,8.0,67,0.00,,---,0.00,VWS V14.01,2013-06-01 03:34:00,
2013-05-31 23:39:00,73.5,61.9,29.94,SW,218,3.0,6.0,67,0.00,,---,0.00,VWS V14.01,2013-06-01 03:39:00,
2013-05-31 23:44:00,73.3,62.1,29.94,SSW,210,2.0,4.0,68,0.00,,---,0.00,VWS V14.01,2013-06-01 03:44:00,
2013-05-31 23:49:00,73.0,61.8,29.95,SSE,158,3.0,4.0,68,0.00,,---,0.00,VWS V14.01,2013-06-01 03:49:00,
2013-05-31 23:54:00,72.7,62.0,29.94,WSW,247,1.0,4.0,69,0.00,,---,0.00,VWS V14.01,2013-06-01 03:54:00,
2013-05-31 23:59:00,72.4,61.7,29.94,WSW,255,2.0,4.0,69,0.00,,---,0.00,VWS V14.01,2013-06-01 03:59:00,